Weather History for Heber, UT

Change the Weather History Date:

Friday, November 30, 2012

  Actual Average (KPVU) Record (KPVU)
Temperature  
Mean Temperature 44 °F -  
Max Temperature 51 °F 40 °F 60 °F (1998)
Min Temperature 37 °F 24 °F 6 °F (2010)
Degree Days  
Heating Degree Days 21    
Moisture  
Dew Point 32 °F    
Average Humidity 61    
Maximum Humidity 93    
Minimum Humidity 44    
Precipitation  
Precipitation 0.00 in - - ()
Sea Level Pressure  
Sea Level Pressure 30.00 in    
Wind  
Wind Speed 5 mph (SSW)    
Max Wind Speed 20 mph    
Max Gust Speed 26 mph    
Visibility 9 miles    
Events Rain    
Averages and records for this station are not official NWS values.
T = Trace of Precipitation, MM = Missing Value Source: NWS Daily Summary

Daily Weather History Graph

Daily Weather History Graph

Search for Another Location

Airport:

Trip Planner

Search our weather history database for the weather conditions in past years. The results will help you decide how hot, cold, wet, or windy it might be!

Date:

Astronomy

Nov. 30, 2012 Rise Set
Actual Time 7:29 AM MST 4:59 PM MST
Civil Twilight 6:59 AM MST 5:30 PM MST
Nautical Twilight 6:25 AM MST 6:03 PM MST
Astronomical Twilight 5:52 AM MST 6:36 PM MST
Moon 6:57 PM MST (11/30) 9:03 AM MST (11/30)
Length of Visible Light 10h 31m
Length of Day
9h 30m
Waning Gibbous, 96% of the Moon is Illuminated
Nov 30
Waning Gibbous
Dec 6
Last Quarter
Dec 13
New
Dec 19
First Quarter
Dec 28
Full

Hourly Weather History & Observations

Time (MST) Temp. Windchill Dew Point Humidity Pressure Visibility Wind Dir Wind Speed Gust Speed Precip Events Conditions
12:15 AM 37.4 °F - 30.2 °F 75% 30.09 in 10.0 mi Calm Calm - N/A   Scattered Clouds
12:35 AM 37.4 °F - 30.2 °F 75% 30.08 in 10.0 mi Calm Calm - N/A   Mostly Cloudy
12:55 AM 39.2 °F - 30.2 °F 70% 30.09 in 10.0 mi Calm Calm - N/A   Overcast
1:15 AM 42.8 °F - 30.2 °F 61% 30.08 in 10.0 mi Calm Calm - N/A   Overcast
1:35 AM 41.0 °F - 30.2 °F 65% 30.07 in 10.0 mi Calm Calm - N/A   Overcast
1:55 AM 41.0 °F - 30.2 °F 65% 30.07 in 10.0 mi Calm Calm - N/A   Overcast
2:15 AM 39.2 °F - 30.2 °F 70% 30.07 in 10.0 mi Calm Calm - N/A   Mostly Cloudy
2:35 AM 41.0 °F - 30.2 °F 65% 30.05 in 10.0 mi Calm Calm - N/A   Mostly Cloudy
2:55 AM 41.0 °F - 30.2 °F 65% 30.05 in 10.0 mi Calm Calm - N/A   Scattered Clouds
3:15 AM 41.0 °F 39.0 °F 30.2 °F 65% 30.05 in 10.0 mi NW 3.5 mph - N/A   Mostly Cloudy
3:35 AM 44.6 °F - 30.2 °F 57% 30.03 in 10.0 mi Calm Calm - N/A   Overcast
3:55 AM 41.0 °F - 30.2 °F 65% 30.02 in 10.0 mi Calm Calm - N/A   Overcast
4:15 AM 42.8 °F 40.1 °F 30.2 °F 61% 30.03 in 10.0 mi South 4.6 mph - N/A   Overcast
4:35 AM 44.6 °F 41.4 °F 30.2 °F 57% 30.02 in 10.0 mi South 5.8 mph - N/A   Overcast
4:55 AM 44.6 °F 41.4 °F 30.2 °F 57% 30.02 in 10.0 mi SSE 5.8 mph - N/A   Overcast
5:15 AM 44.6 °F 39.2 °F 30.2 °F 57% 30.02 in 10.0 mi SSW 10.4 mph 16.1 mph N/A   Overcast
5:35 AM 44.6 °F 41.4 °F 30.2 °F 57% 30.02 in 10.0 mi SSE 5.8 mph - N/A   Overcast
5:55 AM 44.6 °F 40.7 °F 30.2 °F 57% 30.03 in 10.0 mi South 6.9 mph - N/A   Overcast
6:15 AM 46.4 °F 44.3 °F 30.2 °F 53% 30.03 in 10.0 mi South 4.6 mph - N/A   Overcast
6:35 AM 46.4 °F 41.5 °F 30.2 °F 53% 30.02 in 10.0 mi South 10.4 mph - N/A   Mostly Cloudy
6:55 AM 46.4 °F 41.5 °F 30.2 °F 53% 30.02 in 10.0 mi South 10.4 mph 19.6 mph N/A   Mostly Cloudy
7:15 AM 46.4 °F 41.5 °F 30.2 °F 53% 30.02 in 10.0 mi South 10.4 mph 16.1 mph N/A   Overcast
7:35 AM 46.4 °F 41.9 °F 30.2 °F 53% 30.02 in 10.0 mi South 9.2 mph - N/A   Overcast
7:55 AM 46.4 °F 41.1 °F 30.2 °F 53% 30.01 in 10.0 mi South 11.5 mph - N/A   Overcast
8:15 AM 46.4 °F 41.1 °F 30.2 °F 53% 30.02 in 10.0 mi SSW 11.5 mph - N/A   Overcast
8:35 AM 46.4 °F 40.4 °F 28.4 °F 50% 30.02 in 10.0 mi SSW 13.8 mph 18.4 mph N/A   Overcast
8:55 AM 46.4 °F 42.9 °F 28.4 °F 50% 30.02 in 10.0 mi South 6.9 mph 16.1 mph N/A   Overcast
9:15 AM 46.4 °F 42.4 °F 30.2 °F 53% 30.03 in 10.0 mi South 8.1 mph - N/A   Overcast
9:35 AM 46.4 °F 42.9 °F 30.2 °F 53% 30.03 in 10.0 mi South 6.9 mph - N/A   Overcast
9:55 AM 46.4 °F 44.3 °F 30.2 °F 53% 30.03 in 10.0 mi South 4.6 mph - N/A   Overcast
10:15 AM 46.4 °F 42.4 °F 30.2 °F 53% 30.03 in 10.0 mi SSE 8.1 mph - N/A   Overcast
10:35 AM 48.2 °F - 30.2 °F 50% 30.03 in 10.0 mi SSE 8.1 mph - N/A   Overcast
10:55 AM 50.0 °F - 30.2 °F 47% 30.03 in 10.0 mi SSE 3.5 mph - N/A   Overcast
11:15 AM 50.0 °F - 30.2 °F 47% 30.02 in 10.0 mi SE 8.1 mph - N/A   Overcast
11:35 AM 50.0 °F - 30.2 °F 47% 30.01 in 10.0 mi Calm Calm - N/A   Overcast
11:55 AM 50.0 °F - 30.2 °F 47% 30.00 in 10.0 mi Calm Calm - N/A   Mostly Cloudy
12:15 PM 51.8 °F - 32.0 °F 47% 29.99 in 10.0 mi SW 13.8 mph 18.4 mph N/A   Mostly Cloudy
12:35 PM 51.8 °F - 32.0 °F 47% 29.97 in 10.0 mi SW 10.4 mph - N/A   Mostly Cloudy
12:55 PM 51.8 °F - 32.0 °F 47% 29.96 in 10.0 mi SW 16.1 mph - N/A   Scattered Clouds
1:15 PM 51.8 °F - 32.0 °F 47% 29.95 in 10.0 mi SW 15.0 mph - N/A   Clear
1:35 PM 51.8 °F - 32.0 °F 47% 29.95 in 10.0 mi SW 19.6 mph 26.5 mph N/A   Clear
1:55 PM 50.0 °F - 32.0 °F 50% 29.96 in 10.0 mi SW 16.1 mph 21.9 mph N/A   Clear
2:15 PM 51.8 °F - 32.0 °F 47% 29.97 in 10.0 mi SW 15.0 mph 21.9 mph N/A   Clear
2:35 PM 51.8 °F - 30.2 °F 44% 29.96 in 10.0 mi SW 16.1 mph 21.9 mph N/A   Mostly Cloudy
2:55 PM 51.8 °F - 32.0 °F 47% 29.95 in 10.0 mi SW 15.0 mph 21.9 mph N/A   Overcast
3:15 PM 50.0 °F - 32.0 °F 50% 29.95 in 10.0 mi SW 10.4 mph - N/A   Mostly Cloudy
3:35 PM 50.0 °F - 32.0 °F 50% 29.95 in 10.0 mi SW 13.8 mph - N/A   Mostly Cloudy
3:55 PM 50.0 °F - 32.0 °F 50% 29.95 in 10.0 mi WSW 11.5 mph - N/A   Overcast
4:15 PM 50.0 °F - 32.0 °F 50% 29.96 in 10.0 mi WSW 9.2 mph - N/A   Overcast
4:35 PM 48.2 °F - 32.0 °F 54% 29.95 in 10.0 mi SW 8.1 mph - N/A   Overcast
4:55 PM 48.2 °F - 32.0 °F 54% 29.95 in 10.0 mi SW 3.5 mph - N/A   Overcast
5:15 PM 46.4 °F 42.4 °F 32.0 °F 57% 29.95 in 10.0 mi WSW 8.1 mph - N/A   Overcast
5:35 PM 48.2 °F - 32.0 °F 54% 29.95 in 10.0 mi SSW 5.8 mph - N/A   Overcast
5:55 PM 48.2 °F - 32.0 °F 54% 29.95 in 10.0 mi SSW 3.5 mph - N/A   Overcast
6:15 PM 48.2 °F - 32.0 °F 54% 29.94 in 10.0 mi South 8.1 mph - N/A   Overcast
6:35 PM 50.0 °F - 32.0 °F 50% 29.95 in 10.0 mi South 6.9 mph - N/A   Overcast
6:55 PM 46.4 °F 40.1 °F 35.6 °F 66% 29.95 in 7.0 mi WSW 15.0 mph 20.7 mph N/A Rain Rain
7:15 PM 44.6 °F 39.7 °F 37.4 °F 76% 29.97 in 7.0 mi SW 9.2 mph - N/A   Overcast
7:35 PM 44.6 °F 40.7 °F 37.4 °F 76% 29.97 in 5.0 mi South 6.9 mph - N/A   Overcast
7:55 PM 42.8 °F 39.3 °F 37.4 °F 81% 29.98 in 5.0 mi South 5.8 mph - N/A   Overcast
8:15 PM 42.8 °F 39.3 °F 37.4 °F 81% 29.99 in 4.0 mi SSE 5.8 mph - N/A   Overcast
8:35 PM 41.0 °F 37.1 °F 37.4 °F 87% 29.99 in 5.0 mi SSE 5.8 mph - N/A   Overcast
8:55 PM 41.0 °F 39.0 °F 37.4 °F 87% 29.98 in 4.0 mi SSE 3.5 mph - N/A   Overcast
9:15 PM 41.0 °F - 37.4 °F 87% 29.98 in 5.0 mi Calm Calm - N/A   Overcast
9:35 PM 41.0 °F - 37.4 °F 87% 29.99 in 5.0 mi Calm Calm - N/A   Overcast
9:55 PM 42.8 °F - 37.4 °F 81% 29.99 in 10.0 mi Calm Calm - N/A   Overcast
10:15 PM 42.8 °F 40.1 °F 37.4 °F 81% 29.99 in 10.0 mi ENE 4.6 mph - N/A   Overcast
10:35 PM 41.0 °F 39.0 °F 37.4 °F 87% 29.99 in 10.0 mi NNW 3.5 mph - N/A   Overcast
10:55 PM 41.0 °F - 37.4 °F 87% 30.01 in 10.0 mi Calm Calm - N/A   Overcast
11:15 PM 41.0 °F - 37.4 °F 87% 30.00 in 10.0 mi Calm Calm - N/A   Overcast
11:35 PM 41.0 °F - 39.2 °F 93% 30.00 in 10.0 mi Calm Calm - N/A   Overcast